This demonstration page uses our WeatherBlox Daily Observations layout. Learn more.

38.89511, -77.03637

Hourly Observations for November 15, 2017

Temp ( °F °C ) Dew Point ( °F °C ) Humidity (%) Winds ( mph kmh ) Pressure ( in mb ) Visibility ( mi km ) Precip ( " mm )
12:52 am 00:52 Mostly Cloudy 39 3.9 30 -1.1 70 70 NNW 7 11 30.27 1025 10 16.09344 0 0
1:52 am 01:52 Mostly Clear 39 3.9 30 -1.1 70 70 NNW 6 9 30.27 1025 10 16.09344 0 0
2:52 am 02:52 Mostly Clear 38 3.3 30 -1.1 73 73 N 5 7 30.27 1025 10 16.09344 0 0
3:52 am 03:52 Mostly Clear 38 3.3 31 -0.6 76 76 N 5 7 30.27 1025 10 16.09344 0 0
4:52 am 04:52 Clear 37 2.8 30 -1.1 76 76 N 5 7 30.27 1025 10 16.09344 0 0
5:52 am 05:52 Mostly Clear 36 2.2 30 -1.1 79 79 N 6 9 30.27 1025 10 16.09344 0 0
6:52 am 06:52 Mostly Sunny 37 2.8 31 -0.6 79 79 N 3 6 30.27 1025 10 16.09344 0 0
7:52 am 07:52 Mostly Sunny 40 4.4 33 0.6 77 77 N 7 11 30.27 1025 10 16.09344 0 0
8:52 am 08:52 Mostly Sunny 43 6.1 35 1.7 74 74 ENE 8 13 30.27 1025 10 16.09344 0 0
9:52 am 09:52 Partly Cloudy 45 7.2 36 2.2 71 71 ENE 6 9 30.27 1025 10 16.09344 0 0
10:52 am 10:52 Partly Cloudy 49 9.4 37 2.8 64 64 NE 6 9 30.24 1024 10 16.09344 0 0
11:52 am 11:52 Partly Cloudy 51 10.6 37 2.8 59 59 NNE 5 7 30.18 1022 10 16.09344 0 0
12:27 pm 12:27 Cloudy 52 11.1 37 2.8 57 57 Calm 30.18 1022 10 16.09344 0 0
12:52 pm 12:52 Mostly Cloudy 53 11.7 37 2.8 55 55 Calm 30.18 1022 10 16.09344 0 0
1:52 pm 13:52 Mostly Cloudy 54 12.2 38 3.3 55 55 Calm 30.15 1021 10 16.09344 0 0
2:52 pm 14:52 Cloudy 53 11.7 38 3.3 57 57 Calm 30.12 1020 10 16.09344 0 0
3:52 pm 15:52 Cloudy 53 11.7 41 5 64 64 E 8 13 30.09 1019 10 16.09344 0 0
4:52 pm 16:52 Cloudy 51 10.6 42 5.6 71 71 SE 9 15 30.09 1019 10 16.09344 0 0
5:52 pm 17:52 Cloudy 51 10.6 42 5.6 71 71 SE 6 9 30.09 1019 10 16.09344 0 0
6:07 pm 18:07 Cloudy 51 10.6 42 5.6 71 71 SSE 8 13 30.12 1020 10 16.09344 0 0
6:52 pm 18:52 Cloudy 51 10.6 43 6.1 74 74 S 6 9 30.09 1019 10 16.09344 0 0
7:30 pm 19:30 Cloudy 50 10 43 6.1 77 77 SSE 3 6 30.09 1019 10 16.09344 0 0
7:46 pm 19:46 Cloudy 50 10 43 6 76 76 S 5 7 30.09 1019 10 16.09344 0 0
7:52 pm 19:52 Cloudy 50 10 43 6.1 77 77 SSW 3 6 30.09 1019 10 16.09344 0 0
8:52 pm 20:52 Cloudy 50 10 43 6.1 77 77 SSE 6 9 30.06 1018 10 16.09344 0 0
9:52 pm 21:52 Cloudy 50 10 43 6.1 77 77 S 7 11 30.06 1018 10 16.09344 0 0
10:52 pm 22:52 Cloudy 50 10 44 6.7 80 80 SW 5 7 30.03 1017 10 16.09344 0 0
11:14 pm 23:14 Cloudy 50 10 43 6.1 77 77 SW 7 11 30.06 1018 10 16.09344 0 0
11:52 pm 23:52 Cloudy 50 10 43 6.1 77 77 WSW 7 11 30.03 1017 10 16.09344 0 0

Powered by AerisWeather